カタログに戻る

STARLINK-2460

運用中通信VLEO
NORAD 48120·PAYLOAD·🇺🇸 United States

打ち上げ Apr 7, 2021 から Cape Canaveral Space Force Station

Loading…

次のパス (今後24時間)

TLE

最新Source: CelesTrak SupGP

元期: Sep 15, 2026, 02:59 UTC

1 48120C 21027AE  26258.12479167  .00072476  00000+0  11525-2 0  2586
2 48120  53.1572 353.7444 0001466  40.4413  81.2793 15.52660105    15

AllMySatでSTARLINK-2460をリアルタイム追跡

Download on the App Store